Time,TemperatureF,DewpointF,PressureIn,WindDirection,WindDirectionDegrees,WindSpeedMPH,WindSpeedGustMPH,Humidity,HourlyPrecipIn,Conditions,Clouds,dailyrainin,SolarRadiationWatts/m^2,SoftwareType,DateUTC
2013-03-08 00:00:00,31.7,30.2,30.14,NNE,21,1.0,3.0,94,0.00,,,0.00,0,Wunderground v.1.15,2013-03-08 05:00:00,
2013-03-08 00:10:00,31.8,30.3,30.15,NNW,336,1.0,2.0,94,0.00,,,0.00,0,Wunderground v.1.15,2013-03-08 05:10:00,
2013-03-08 00:20:00,31.9,30.4,30.14,NNE,17,2.0,2.0,94,0.00,,,0.01,0,Wunderground v.1.15,2013-03-08 05:20:00,
2013-03-08 00:30:00,31.9,30.6,30.14,NNE,33,1.0,2.0,95,0.00,,,0.01,0,Wunderground v.1.15,2013-03-08 05:30:00,
2013-03-08 00:40:00,31.9,30.4,30.15,North,9,2.0,2.0,94,0.00,,,0.01,0,Wunderground v.1.15,2013-03-08 05:40:00,
2013-03-08 00:50:00,31.8,30.3,30.15,North,10,2.0,2.0,94,0.00,,,0.01,0,Wunderground v.1.15,2013-03-08 05:50:00,
2013-03-08 01:00:00,31.8,30.3,30.15,North,355,2.0,2.0,94,0.00,,,0.02,0,Wunderground v.1.15,2013-03-08 06:00:00,
2013-03-08 01:10:00,31.8,30.3,30.15,NNE,12,1.0,1.0,94,0.00,,,0.02,0,Wunderground v.1.15,2013-03-08 06:10:00,
2013-03-08 01:20:00,31.7,30.2,30.15,NNW,348,1.0,1.0,94,0.00,,,0.02,0,Wunderground v.1.15,2013-03-08 06:20:00,
2013-03-08 01:30:00,31.6,30.1,30.15,North,11,1.0,2.0,94,0.00,,,0.03,0,Wunderground v.1.15,2013-03-08 06:30:00,
2013-03-08 01:40:00,31.6,30.1,30.15,NNE,19,2.0,2.0,94,0.00,,,0.03,0,Wunderground v.1.15,2013-03-08 06:40:00,
2013-03-08 01:50:00,31.4,29.9,30.15,North,9,2.0,2.0,94,0.00,,,0.03,0,Wunderground v.1.15,2013-03-08 06:50:00,
2013-03-08 02:00:00,31.2,29.9,30.14,NE,36,1.0,1.0,95,0.00,,,0.04,0,Wunderground v.1.15,2013-03-08 07:00:00,
2013-03-08 02:10:00,31.1,29.8,30.14,North,9,2.0,4.0,95,0.04,,,0.05,0,Wunderground v.1.15,2013-03-08 07:10:00,
2013-03-08 02:20:00,31.1,29.8,30.14,North,355,3.0,3.0,95,0.04,,,0.05,0,Wunderground v.1.15,2013-03-08 07:20:00,
2013-03-08 02:30:00,31.0,29.7,30.14,NNE,15,2.0,4.0,95,0.00,,,0.06,0,Wunderground v.1.15,2013-03-08 07:30:00,
2013-03-08 02:40:00,30.9,29.6,30.14,North,11,2.0,2.0,95,0.00,,,0.06,0,Wunderground v.1.15,2013-03-08 07:40:00,
2013-03-08 02:50:00,30.9,29.6,30.13,NNE,30,2.0,2.0,95,0.04,,,0.07,0,Wunderground v.1.15,2013-03-08 07:50:00,
2013-03-08 03:00:00,31.0,29.7,30.13,NNE,22,2.0,2.0,95,0.04,,,0.07,0,Wunderground v.1.15,2013-03-08 08:00:00,
2013-03-08 03:10:00,31.0,29.7,30.13,NNW,340,2.0,3.0,95,0.00,,,0.08,0,Wunderground v.1.15,2013-03-08 08:10:00,
2013-03-08 03:20:00,30.8,29.5,30.13,NNW,336,2.0,2.0,95,0.04,,,0.09,0,Wunderground v.1.15,2013-03-08 08:20:00,
2013-03-08 03:30:00,30.8,29.5,30.13,NE,47,2.0,2.0,95,0.04,,,0.09,0,Wunderground v.1.15,2013-03-08 08:30:00,
2013-03-08 03:40:00,30.9,29.6,30.13,NNW,341,2.0,2.0,95,0.04,,,0.10,0,Wunderground v.1.15,2013-03-08 08:40:00,
2013-03-08 03:50:00,30.9,29.6,30.13,North,9,2.0,2.0,95,0.04,,,0.10,0,Wunderground v.1.15,2013-03-08 08:50:00,
2013-03-08 04:00:00,30.9,29.6,30.13,North,351,2.0,2.0,95,0.04,,,0.11,0,Wunderground v.1.15,2013-03-08 09:00:00,
2013-03-08 04:10:00,30.9,29.6,30.13,NNE,14,2.0,2.0,95,0.00,,,0.11,0,Wunderground v.1.15,2013-03-08 09:10:00,
2013-03-08 04:20:00,30.9,29.6,30.14,NNE,15,4.0,4.0,95,0.00,,,0.12,0,Wunderground v.1.15,2013-03-08 09:20:00,
2013-03-08 04:30:00,30.8,29.5,30.13,NE,40,4.0,4.0,95,0.00,,,0.13,0,Wunderground v.1.15,2013-03-08 09:30:00,
2013-03-08 04:40:00,30.7,29.4,30.13,NNW,333,2.0,2.0,95,0.00,,,0.13,0,Wunderground v.1.15,2013-03-08 09:40:00,
2013-03-08 04:50:00,30.7,29.4,30.14,North,360,2.0,5.0,95,0.00,,,0.13,0,Wunderground v.1.15,2013-03-08 09:50:00,
2013-03-08 05:00:00,30.7,29.4,30.13,North,360,3.0,3.0,95,0.00,,,0.13,0,Wunderground v.1.15,2013-03-08 10:00:00,
2013-03-08 05:10:00,30.6,29.3,30.14,North,355,3.0,3.0,95,0.00,,,0.14,0,Wunderground v.1.15,2013-03-08 10:10:00,
2013-03-08 05:20:00,30.6,29.3,30.14,NNW,346,3.0,3.0,95,0.00,,,0.14,0,Wunderground v.1.15,2013-03-08 10:20:00,
2013-03-08 05:30:00,30.6,29.3,30.14,North,350,3.0,3.0,95,0.00,,,0.14,0,Wunderground v.1.15,2013-03-08 10:30:00,
2013-03-08 05:40:00,30.6,29.3,30.14,NNE,15,3.0,3.0,95,0.00,,,0.15,0,Wunderground v.1.15,2013-03-08 10:40:00,
2013-03-08 05:50:00,30.6,29.3,30.14,North,5,3.0,3.0,95,0.00,,,0.15,0,Wunderground v.1.15,2013-03-08 10:50:00,
2013-03-08 06:00:00,30.6,29.3,30.14,NNW,336,2.0,4.0,95,0.00,,,0.15,0,Wunderground v.1.15,2013-03-08 11:00:00,
2013-03-08 06:10:00,30.6,29.3,30.14,NNE,20,2.0,2.0,95,0.00,,,0.16,0,Wunderground v.1.15,2013-03-08 11:10:00,
2013-03-08 06:20:00,30.6,29.3,30.14,NE,53,2.0,4.0,95,0.05,,,0.17,0,Wunderground v.1.15,2013-03-08 11:20:00,
2013-03-08 06:30:00,30.7,29.7,30.14,NNW,327,2.0,2.0,96,0.05,,,0.17,0,Wunderground v.1.15,2013-03-08 11:30:00,
2013-03-08 06:40:00,30.8,29.5,30.14,NNE,16,3.0,3.0,95,0.00,,,0.17,0,Wunderground v.1.15,2013-03-08 11:40:00,
2013-03-08 06:50:00,30.8,29.5,30.14,WNW,302,3.0,3.0,95,0.00,,,0.18,0,Wunderground v.1.15,2013-03-08 11:50:00,
2013-03-08 07:00:00,30.8,29.8,30.14,NNW,340,3.0,4.0,96,0.04,,,0.19,0,Wunderground v.1.15,2013-03-08 12:00:00,
2013-03-08 07:10:00,30.8,29.8,30.14,North,360,2.0,4.0,96,0.04,,,0.19,0,Wunderground v.1.15,2013-03-08 12:10:00,
2013-03-08 07:20:00,30.8,29.8,30.15,NNE,13,2.0,3.0,96,0.00,,,0.20,0,Wunderground v.1.15,2013-03-08 12:20:00,
2013-03-08 07:30:00,31.0,30.0,30.15,SW,227,3.0,3.0,96,0.07,,,0.21,0,Wunderground v.1.15,2013-03-08 12:30:00,
2013-03-08 07:40:00,31.1,30.1,30.15,NNW,348,2.0,2.0,96,0.05,,,0.22,0,Wunderground v.1.15,2013-03-08 12:40:00,
2013-03-08 07:50:00,31.2,30.2,30.15,NNE,27,2.0,2.0,96,0.07,,,0.23,0,Wunderground v.1.15,2013-03-08 12:50:00,
2013-03-08 08:00:00,31.4,30.4,30.15,North,11,2.0,2.0,96,0.04,,,0.24,5,Wunderground v.1.15,2013-03-08 13:00:00,
2013-03-08 08:10:00,31.5,30.5,30.16,NNE,17,2.0,2.0,96,0.05,,,0.25,7,Wunderground v.1.15,2013-03-08 13:10:00,
2013-03-08 08:20:00,31.6,30.3,30.15,North,10,2.0,2.0,95,0.05,,,0.25,5,Wunderground v.1.15,2013-03-08 13:20:00,
2013-03-08 08:30:00,31.5,30.2,30.16,NNE,21,2.0,2.0,95,0.00,,,0.25,5,Wunderground v.1.15,2013-03-08 13:30:00,
2013-03-08 08:40:00,31.6,30.3,30.16,NNE,33,2.0,3.0,95,0.00,,,0.26,5,Wunderground v.1.15,2013-03-08 13:40:00,
2013-03-08 08:50:00,31.9,30.9,30.17,NNE,24,2.0,2.0,96,0.07,,,0.28,7,Wunderground v.1.15,2013-03-08 13:50:00,
2013-03-08 09:00:00,32.1,31.1,30.17,NE,35,2.0,3.0,96,0.08,,,0.29,9,Wunderground v.1.15,2013-03-08 14:00:00,
2013-03-08 09:10:00,32.2,30.9,30.17,NNE,14,3.0,3.0,95,0.05,,,0.29,11,Wunderground v.1.15,2013-03-08 14:10:00,
2013-03-08 09:20:00,32.3,31.0,30.17,NE,36,3.0,3.0,95,0.00,,,0.30,12,Wunderground v.1.15,2013-03-08 14:20:00,
2013-03-08 09:30:00,32.2,30.9,30.17,North,355,4.0,4.0,95,0.00,,,0.30,12,Wunderground v.1.15,2013-03-08 14:30:00,
2013-03-08 09:40:00,32.4,31.1,30.17,NNE,27,3.0,4.0,95,0.04,,,0.31,18,Wunderground v.1.15,2013-03-08 14:40:00,
2013-03-08 09:50:00,32.5,31.2,30.17,NE,53,4.0,6.0,95,0.04,,,0.31,16,Wunderground v.1.15,2013-03-08 14:50:00,
2013-03-08 10:00:00,32.6,31.3,30.17,North,360,2.0,2.0,95,0.04,,,0.32,12,Wunderground v.1.15,2013-03-08 15:00:00,
2013-03-08 10:10:00,32.8,31.5,30.17,NNE,13,4.0,4.0,95,0.04,,,0.33,16,Wunderground v.1.15,2013-03-08 15:10:00,
2013-03-08 10:20:00,33.0,31.7,30.18,NE,56,3.0,4.0,95,0.04,,,0.33,14,Wunderground v.1.15,2013-03-08 15:20:00,
2013-03-08 10:30:00,33.1,31.8,30.19,North,11,3.0,3.0,95,0.00,,,0.33,14,Wunderground v.1.15,2013-03-08 15:30:00,
2013-03-08 10:40:00,33.2,31.9,30.19,NNE,27,2.0,5.0,95,0.00,,,0.33,14,Wunderground v.1.15,2013-03-08 15:40:00,
2013-03-08 10:50:00,33.4,32.1,30.18,North,9,2.0,2.0,95,0.00,,,0.34,18,Wunderground v.1.15,2013-03-08 15:50:00,
2013-03-08 11:00:00,33.5,32.2,30.19,NNE,31,0.0,0.0,95,0.00,,,0.34,19,Wunderground v.1.15,2013-03-08 16:00:00,
2013-03-08 11:10:00,33.6,32.3,30.18,NE,38,0.0,0.0,95,0.00,,,0.35,18,Wunderground v.1.15,2013-03-08 16:10:00,
2013-03-08 11:20:00,33.8,32.3,30.19,North,360,3.0,3.0,94,0.00,,,0.35,19,Wunderground v.1.15,2013-03-08 16:20:00,
2013-03-08 11:30:00,34.0,32.5,30.19,NNW,344,3.0,4.0,94,0.00,,,0.35,21,Wunderground v.1.15,2013-03-08 16:30:00,
2013-03-08 11:40:00,34.2,32.7,30.18,North,9,2.0,2.0,94,0.00,,,0.35,21,Wunderground v.1.15,2013-03-08 16:40:00,
2013-03-08 11:50:00,34.4,32.9,30.19,NNE,28,1.0,2.0,94,0.00,,,0.35,19,Wunderground v.1.15,2013-03-08 16:50:00,
2013-03-08 12:00:00,34.8,33.2,30.19,NNE,21,0.0,1.0,94,0.00,,,0.35,23,Wunderground v.1.15,2013-03-08 17:00:00,
2013-03-08 12:10:00,35.2,33.6,30.19,NE,36,1.0,3.0,94,0.00,,,0.35,23,Wunderground v.1.15,2013-03-08 17:10:00,
2013-03-08 12:20:00,35.4,33.3,30.18,North,5,2.0,3.0,92,0.13,,,0.37,32,Wunderground v.1.15,2013-03-08 17:20:00,
2013-03-08 12:30:00,35.7,33.6,30.17,NE,48,2.0,4.0,92,0.05,,,0.37,40,Wunderground v.1.15,2013-03-08 17:30:00,
2013-03-08 12:40:00,35.7,33.6,30.16,NNW,331,2.0,2.0,92,0.14,,,0.39,44,Wunderground v.1.15,2013-03-08 17:40:00,
2013-03-08 12:50:00,35.8,33.7,30.16,NNE,18,3.0,4.0,92,0.05,,,0.40,49,Wunderground v.1.15,2013-03-08 17:50:00,
2013-03-08 13:00:00,36.2,34.1,30.16,North,9,4.0,4.0,92,0.05,,,0.40,63,Wunderground v.1.15,2013-03-08 18:00:00,
2013-03-08 13:10:00,36.6,34.2,30.17,ENE,59,4.0,4.0,91,0.04,,,0.41,67,Wunderground v.1.15,2013-03-08 18:10:00,
2013-03-08 13:20:00,36.9,34.0,30.17,NNW,348,4.0,4.0,89,0.09,,,0.43,77,Wunderground v.1.15,2013-03-08 18:20:00,
2013-03-08 13:30:00,36.9,33.7,30.17,North,5,5.0,6.0,88,0.05,,,0.43,95,Wunderground v.1.15,2013-03-08 18:30:00,
2013-03-08 13:40:00,37.1,33.6,30.18,NE,55,5.0,5.0,87,0.00,,,0.43,127,Wunderground v.1.15,2013-03-08 18:40:00,
2013-03-08 13:50:00,37.5,34.0,30.18,NNE,19,5.0,8.0,87,0.00,,,0.43,181,Wunderground v.1.15,2013-03-08 18:50:00,
2013-03-08 14:00:00,37.9,34.1,30.19,NE,52,4.0,4.0,86,0.00,,,0.43,255,Wunderground v.1.15,2013-03-08 19:00:00,
2013-03-08 14:10:00,38.4,34.0,30.18,East,98,3.0,3.0,84,0.00,,,0.43,253,Wunderground v.1.15,2013-03-08 19:10:00,
2013-03-08 14:20:00,39.0,34.0,30.20,ENE,72,3.0,4.0,82,0.00,,,0.43,230,Wunderground v.1.15,2013-03-08 19:20:00,
2013-03-08 14:30:00,39.5,33.8,30.19,North,360,3.0,3.0,80,0.00,,,0.43,174,Wunderground v.1.15,2013-03-08 19:30:00,
2013-03-08 14:40:00,40.1,33.5,30.19,North,5,3.0,3.0,77,0.00,,,0.43,179,Wunderground v.1.15,2013-03-08 19:40:00,
2013-03-08 14:50:00,40.6,34.0,30.19,NNE,32,3.0,3.0,77,0.00,,,0.43,169,Wunderground v.1.15,2013-03-08 19:50:00,
2013-03-08 15:00:00,41.1,34.4,30.18,North,9,4.0,4.0,77,0.00,,,0.43,134,Wunderground v.1.15,2013-03-08 20:00:00,
2013-03-08 15:10:00,41.7,34.7,30.18,NNW,340,3.0,5.0,76,0.00,,,0.43,121,Wunderground v.1.15,2013-03-08 20:10:00,
2013-03-08 15:20:00,42.2,34.2,30.19,NE,38,5.0,5.0,73,0.00,,,0.43,104,Wunderground v.1.15,2013-03-08 20:20:00,
2013-03-08 15:30:00,41.7,33.3,30.19,NW,315,6.0,6.0,72,0.00,,,0.43,134,Wunderground v.1.15,2013-03-08 20:30:00,
2013-03-08 15:40:00,41.5,33.5,30.19,North,351,4.0,4.0,73,0.00,,,0.43,160,Wunderground v.1.15,2013-03-08 20:40:00,
2013-03-08 15:50:00,41.6,33.9,30.20,NNE,26,3.0,3.0,74,0.00,,,0.43,132,Wunderground v.1.15,2013-03-08 20:50:00,
2013-03-08 16:01:00,41.9,34.2,30.20,NE,34,3.0,3.0,74,0.00,,,0.43,167,Wunderground v.1.15,2013-03-08 21:01:00,
2013-03-08 16:10:00,42.1,33.4,30.20,NNE,19,5.0,9.0,71,0.00,,,0.43,142,Wunderground v.1.15,2013-03-08 21:10:00,
2013-03-08 16:20:00,42.2,33.5,30.20,NNE,24,4.0,4.0,71,0.00,,,0.43,121,Wunderground v.1.15,2013-03-08 21:20:00,
2013-03-08 16:30:00,42.2,32.4,30.21,NNE,32,5.0,5.0,68,0.00,,,0.43,105,Wunderground v.1.15,2013-03-08 21:30:00,
2013-03-08 16:40:00,42.2,32.8,30.21,NNE,28,3.0,3.0,69,0.00,,,0.43,113,Wunderground v.1.15,2013-03-08 21:40:00,
2013-03-08 16:50:00,42.4,32.2,30.22,NNE,21,4.0,4.0,67,0.00,,,0.43,84,Wunderground v.1.15,2013-03-08 21:50:00,
2013-03-08 17:00:00,42.1,31.6,30.22,North,355,4.0,4.0,66,0.00,,,0.43,72,Wunderground v.1.15,2013-03-08 22:00:00,
2013-03-08 17:10:00,41.7,31.2,30.23,NNE,26,3.0,4.0,66,0.00,,,0.43,58,Wunderground v.1.15,2013-03-08 22:10:00,
2013-03-08 17:20:00,41.4,31.3,30.23,North,5,2.0,2.0,67,0.00,,,0.43,47,Wunderground v.1.15,2013-03-08 22:20:00,
2013-03-08 17:30:00,41.0,31.2,30.23,NNE,32,3.0,3.0,68,0.00,,,0.43,32,Wunderground v.1.15,2013-03-08 22:30:00,
2013-03-08 17:40:00,40.6,30.9,30.24,NNE,20,3.0,3.0,68,0.00,,,0.43,21,Wunderground v.1.15,2013-03-08 22:40:00,
2013-03-08 17:50:00,40.2,30.8,30.24,North,360,2.0,2.0,69,0.00,,,0.43,11,Wunderground v.1.15,2013-03-08 22:50:00,
2013-03-08 18:00:00,39.7,30.4,30.25,ENE,61,2.0,2.0,69,0.00,,,0.43,0,Wunderground v.1.15,2013-03-08 23:00:00,
2013-03-08 18:10:00,39.3,30.7,30.25,NE,42,0.0,0.0,71,0.00,,,0.43,0,Wunderground v.1.15,2013-03-08 23:10:00,
2013-03-08 18:20:00,38.7,30.8,30.26,NE,41,0.0,0.0,73,0.00,,,0.43,0,Wunderground v.1.15,2013-03-08 23:20:00,
2013-03-08 18:30:00,38.1,30.5,30.27,NE,41,0.0,0.0,74,0.00,,,0.43,0,Wunderground v.1.15,2013-03-08 23:30:00,
2013-03-08 18:40:00,37.4,30.8,30.27,NE,42,0.0,0.0,77,0.00,,,0.43,0,Wunderground v.1.15,2013-03-08 23:40:00,
2013-03-08 18:50:00,36.8,30.6,30.27,NE,50,1.0,1.0,78,0.00,,,0.43,0,Wunderground v.1.15,2013-03-08 23:50:00,
2013-03-08 19:01:00,36.4,30.5,30.27,NNE,18,0.0,0.0,79,0.00,,,0.43,0,Wunderground v.1.15,2013-03-09 00:01:00,
2013-03-08 19:10:00,36.1,30.8,30.28,NNE,18,0.0,0.0,81,0.00,,,0.43,0,Wunderground v.1.15,2013-03-09 00:10:00,
2013-03-08 19:20:00,35.9,29.7,30.28,ENE,63,1.0,4.0,78,0.00,,,0.43,0,Wunderground v.1.15,2013-03-09 00:20:00,
2013-03-08 19:30:00,36.1,29.3,30.29,North,5,2.0,2.0,76,0.00,,,0.43,0,Wunderground v.1.15,2013-03-09 00:30:00,
2013-03-08 19:40:00,36.4,28.9,30.30,NNE,15,3.0,4.0,74,0.00,,,0.43,0,Wunderground v.1.15,2013-03-09 00:40:00,
2013-03-08 19:50:00,36.5,29.0,30.30,ENE,74,2.0,2.0,74,0.00,,,0.43,0,Wunderground v.1.15,2013-03-09 00:50:00,
2013-03-08 20:00:00,36.4,28.9,30.30,North,9,2.0,2.0,74,0.00,,,0.43,0,Wunderground v.1.15,2013-03-09 01:00:00,
2013-03-08 20:10:00,36.3,28.8,30.30,NNE,22,2.0,3.0,74,0.00,,,0.43,0,Wunderground v.1.15,2013-03-09 01:10:00,
2013-03-08 20:20:00,36.1,28.3,30.31,NE,50,3.0,3.0,73,0.00,,,0.43,0,Wunderground v.1.15,2013-03-09 01:20:00,
2013-03-08 20:30:00,36.0,28.5,30.30,NNE,22,2.0,3.0,74,0.00,,,0.43,0,Wunderground v.1.15,2013-03-09 01:30:00,
2013-03-08 20:40:00,35.9,28.4,30.31,North,5,2.0,2.0,74,0.00,,,0.43,0,Wunderground v.1.15,2013-03-09 01:40:00,
2013-03-08 20:50:00,35.6,28.5,30.31,North,10,2.0,3.0,75,0.00,,,0.43,0,Wunderground v.1.15,2013-03-09 01:50:00,
2013-03-08 21:00:00,35.3,28.2,30.31,NNE,24,2.0,2.0,75,0.00,,,0.43,0,Wunderground v.1.15,2013-03-09 02:00:00,
2013-03-08 21:10:00,35.0,28.5,30.32,NNE,24,1.0,1.0,77,0.00,,,0.43,0,Wunderground v.1.15,2013-03-09 02:10:00,
2013-03-08 21:20:00,34.5,28.3,30.32,NNE,24,0.0,1.0,78,0.00,,,0.43,0,Wunderground v.1.15,2013-03-09 02:20:00,
2013-03-08 21:30:00,33.9,28.1,30.32,NNE,24,1.0,1.0,79,0.00,,,0.43,0,Wunderground v.1.15,2013-03-09 02:30:00,
2013-03-08 21:40:00,33.5,27.7,30.32,NE,34,2.0,2.0,79,0.00,,,0.43,0,Wunderground v.1.15,2013-03-09 02:40:00,
2013-03-08 21:50:00,33.5,27.4,30.32,NE,53,2.0,5.0,78,0.00,,,0.43,0,Wunderground v.1.15,2013-03-09 02:50:00,
2013-03-08 22:00:00,33.6,27.2,30.32,NNE,15,2.0,2.0,77,0.00,,,0.43,0,Wunderground v.1.15,2013-03-09 03:00:00,
2013-03-08 22:10:00,33.5,27.1,30.33,North,349,2.0,2.0,77,0.00,,,0.43,0,Wunderground v.1.15,2013-03-09 03:10:00,
2013-03-08 22:20:00,33.5,27.1,30.32,North,5,2.0,2.0,77,0.00,,,0.43,0,Wunderground v.1.15,2013-03-09 03:20:00,
2013-03-08 22:30:00,33.3,27.2,30.32,NNE,18,1.0,1.0,78,0.00,,,0.43,0,Wunderground v.1.15,2013-03-09 03:30:00,
2013-03-08 22:40:00,32.7,27.2,30.32,NNE,18,0.0,0.0,80,0.00,,,0.43,0,Wunderground v.1.15,2013-03-09 03:40:00,
2013-03-08 22:50:00,32.0,26.8,30.32,NNE,18,1.0,1.0,81,0.00,,,0.43,0,Wunderground v.1.15,2013-03-09 03:50:00,
2013-03-08 23:00:00,31.4,26.5,30.32,NNE,13,1.0,1.0,82,0.00,,,0.43,0,Wunderground v.1.15,2013-03-09 04:00:00,
2013-03-08 23:10:00,30.7,26.4,30.32,NE,38,0.0,1.0,84,0.00,,,0.43,0,Wunderground v.1.15,2013-03-09 04:10:00,
2013-03-08 23:20:00,30.0,26.0,30.32,NE,38,0.0,0.0,85,0.00,,,0.43,0,Wunderground v.1.15,2013-03-09 04:20:00,
2013-03-08 23:30:00,29.4,25.7,30.32,NE,38,0.0,0.0,86,0.00,,,0.43,0,Wunderground v.1.15,2013-03-09 04:30:00,
2013-03-08 23:40:00,28.9,25.8,30.32,NE,38,0.0,0.0,88,0.00,,,0.43,0,Wunderground v.1.15,2013-03-09 04:40:00,
2013-03-08 23:50:00,28.5,25.4,30.32,NE,38,0.0,0.0,88,0.00,,,0.43,0,Wunderground v.1.15,2013-03-09 04:50:00,